Flag for China

Past Weather in 38°57'11"N, 121°32'56"E, China — Yesterday and Last 2 Weeks

Now
64 °F

Passing clouds.


Feels Like: 64 °F
Forecast: 56 / 44 °F
Wind: 6 mph from Southwest

Location: Dalian Airport

Current Time: Apr 6, 2020 at 6:07:55 pm

Latest Report: Apr 6, 2020 at 5:00 pm


Visibility: N/A

Pressure: 30.01 "Hg

Humidity: 32%

Dew Point: 34 °F

Location of 38°57'11"N, 121°32'56"ELocation

Past Weather in 38°57'11"N, 121°32'56"E — Graph

°F

38°57'11"N, 121°32'56"E Temperature Yesterday

Maximum temperature yesterday: 55 °F (at 12:30 pm)
Minimum temperature yesterday: 34 °F (at 2:30 am)
Average temperature yesterday: 46 °F

High & Low Weather Summary for the Past Weeks

 TemperatureHumidityPressure
High66 °F (Apr 6, 12:30 pm)94% (Mar 26, 1:00 am)30.42 "Hg (Mar 26, 1:00 am)
Low25 °F (Mar 28, 5:30 am)10% (Mar 29, 3:00 pm)29.92 "Hg (Mar 25, 4:00 pm)
Average48 °F42%30.16 "Hg
* Reported Mar 22 5:00 pm — Apr 6 5:00 pm, 38°57'11"N, 121°32'56"E. Weather by CustomWeather, © 2020

Note: Actual official high and low records may vary slightly from our data, if they occured in-between our weather recording intervals... More about our weather records

38°57'11"N, 121°32'56"E Weather History for the Previous 24 Hours

Scroll right to see more
 ConditionsComfort  
Time TempWeatherWind HumidityBarometerVisibility
5:00 pm
Mon, Apr 6
64 °FPassing clouds.6 mph32%30.01 "HgN/A
4:30 pm64 °FPassing clouds.13 mph34%30.01 "HgN/A
4:00 pm66 °FPassing clouds.10 mph32%30.01 "HgN/A
3:30 pm66 °FPassing clouds.13 mph32%30.01 "HgN/A
3:00 pm66 °FPassing clouds.13 mph32%30.04 "HgN/A
2:30 pm66 °FSunny.10 mph35%30.04 "Hg10 mi
2:00 pm64 °FSunny.15 mph34%30.04 "Hg10 mi
1:30 pm66 °FSunny.15 mph35%30.07 "Hg10 mi
1:00 pm64 °FSunny.17 mph34%30.07 "Hg10 mi
12:30 pm66 °FSunny.15 mph35%30.09 "Hg10 mi
12:00 pm64 °FSunny.15 mph37%30.09 "Hg10 mi
11:30 am64 °FPassing clouds.10 mph40%30.09 "HgN/A
11:00 am64 °FPassing clouds.10 mph37%30.12 "HgN/A
10:30 am64 °FPassing clouds.6 mph40%30.12 "HgN/A
10:00 am63 °FSunny.3 mph32%30.12 "Hg10 mi
9:30 am61 °FSunny.1 mph31%30.12 "Hg10 mi
9:00 am59 °FSunny.3 mph34%30.12 "Hg10 mi
8:30 am55 °FSunny.3 mph36%30.12 "Hg10 mi
8:00 am54 °FSunny.3 mph35%30.12 "Hg10 mi
7:30 am50 °FSunny.1 mph37%30.12 "Hg10 mi
7:00 am48 °FSunny.1 mph40%30.15 "Hg10 mi
6:30 am43 °FSunny.1 mph42%30.15 "Hg10 mi
6:00 am41 °FSunny.1 mph39%30.15 "Hg10 mi
5:30 am39 °FSunny.1 mph39%30.15 "Hg10 mi
5:00 am43 °FClear.1 mph26%30.12 "Hg10 mi
4:30 am41 °FClear.No wind28%30.15 "Hg10 mi
4:00 am41 °FClear.1 mph24%30.15 "Hg10 mi
3:30 am43 °FClear.No wind22%30.15 "Hg10 mi
3:00 am45 °FClear.No wind18%30.15 "Hg10 mi
2:30 am41 °FClear.No wind20%30.15 "Hg10 mi
2:00 am43 °FClear.No wind19%30.18 "Hg10 mi
1:30 am43 °FClear.No wind21%30.18 "Hg10 mi
1:00 am43 °FClear.No wind21%30.18 "Hg10 mi
12:30 am43 °FClear.1 mph24%30.21 "Hg10 mi
12:00 am43 °FClear.1 mph34%30.21 "Hg10 mi
11:30 pm
Sun, Apr 5
43 °FClear.1 mph39%30.21 "Hg10 mi
11:00 pm45 °FClear.1 mph27%30.21 "Hg10 mi
10:30 pm45 °FClear.No wind25%30.24 "Hg10 mi
10:00 pm45 °FClear.No wind23%30.24 "Hg10 mi
9:30 pm45 °FClear.No wind21%30.24 "Hg10 mi
9:00 pm43 °FClear.1 mph22%30.24 "Hg10 mi
8:30 pm46 °FClear.1 mph17%30.24 "Hg10 mi
8:00 pm48 °FClear.3 mph14%30.24 "Hg10 mi
7:30 pm48 °FClear.3 mph14%30.21 "Hg10 mi
7:00 pm50 °FClear.6 mph11%30.21 "Hg10 mi
6:30 pm50 °FClear.6 mph11%30.21 "Hg10 mi
6:00 pm52 °FSunny.8 mph10%30.21 "Hg10 mi
Weather by CustomWeather, © 2020

See weather overview

Advertising